Location: Katzenstein
(51.7484°N, 10.2155°E)
Time: 03:50:58
(UTC+00:00)

Daily predictions for brighter satellites

Satellite Brightness Start Highest point End
(mag) Time Altitude Azimuth Time Altitude Azimuth Time Altitude Azimuth
Cosmos 2333 Rocket 4.4 01:49:49 21° NE 01:49:49 21° NE 01:51:39 10° NE
Cosmos 2322 Rocket 4.4 02:14:37 18° N 02:14:37 18° N 02:16:22 10° NNE
Cosmos 2237 Rocket 3.9 02:21:11 29° ENE 02:21:11 29° ENE 02:24:26 10° NE
ATLAS 2AS CENTAUR R/B 4.0 02:23:04 36° NNW 02:23:12 36° NNW 02:30:15 10° NE
Cosmos 2219 Rocket 3.7 02:33:02 31° NNE 02:33:02 31° NNE 02:35:53 10° NNE
Cosmos 2360 Rocket 4.0 02:44:16 22° N 02:44:16 22° N 02:46:40 10° NNE
COSMOS 2428 4.0 02:46:26 35° NNE 02:46:26 35° NNE 02:49:43 10° NNE
NOSS 3-1 (C) 4.3 02:49:15 56° SSE 02:49:15 56° SSE 02:55:45 10° SE
Cosmos 1943 Rocket 3.7 02:49:40 25° N 02:51:44 32° NE 02:56:39 10° ESE
Lacrosse 5 3.2 02:59:20 36° E 02:59:20 36° E 03:02:28 10° E
SL-16 R/B 3.7 02:59:40 28° SE 03:01:05 31° ESE 03:06:01 10° NE
CZ-2C R/B 3.8 03:02:07 10° NNE 03:06:57 37° E 03:08:22 31° SE
Cosmos 1980 4.1 03:09:29 59° NE 03:09:29 59° NE 03:14:04 10° NNE
SL-16 R/B 4.3 03:11:43 16° NNW 03:11:43 16° NNW 03:14:19 10° NNE
Cosmos 2369 Rocket 3.6 03:08:02 16° NNW 03:12:03 36° NE 03:17:18 10° ESE
USA 215 3.2 03:13:02 10° ENE 03:19:33 72° NNW 03:19:59 70° NW
NOSS 0 Rocket 3.9 03:24:36 71° NNW 03:24:36 71° NNW 03:30:29 10° NNE
Meteor 2-1 Rocket 4.3 03:25:18 66° N 03:25:18 66° N 03:30:02 10° NNE
CZ-4C R/B 2.2 03:29:40 76° N 03:29:40 76° N 03:35:43 10° NE
Cosmos 2333 Rocket 3.3 03:31:49 33° NNW 03:31:49 33° NNW 03:35:54 10° NNE
USA 229 DEB 4.3 03:35:49 44° SSW 03:35:49 44° SSW 03:41:25 10° SSE
USA 229 4.2 03:35:52 45° SSW 03:35:52 45° SSW 03:41:31 10° SSE
NOSS 3-1 (A) 3.9 03:39:16 51° WNW 03:41:10 66° SW 03:49:36 10° SSE
ATLAS CENTAUR R/B 2.1 03:43:09 53° SE 03:43:20 53° SE 03:47:42 10° NE
ADEOS II 4.1 03:39:43 10° N 03:41:04 15° NNW 03:41:04 15° NNW
H-2A R/B 3.7 03:41:15 10° NNE 03:45:24 42° E 03:48:34 17° SSE
MSX 3.7 03:45:11 10° NNE 03:50:54 70° WNW 03:51:32 64° WSW
Cosmos 1934 Rocket 3.9 03:45:04 10° NNW 03:51:18 67° W 03:57:34 10° S
IDEFIX/ARIANE 42P 3.3 03:46:38 10° N 03:50:26 39° NNW 03:50:26 39° NNW
Cosmos 1992 Rocket 4.0 03:55:39 60° SSW 03:55:39 60° SSW 04:00:07 10° SSE
Cosmos 2322 Rocket 4.3 03:56:25 13° NNW 03:57:14 13° NNW 03:59:54 10° N
Cosmos 1356 Rocket 3.7 03:58:21 48° SSE 03:59:14 62° E 04:03:18 10° NNE
Cosmos 2237 Rocket 2.4 04:03:02 48° WNW 04:03:16 48° NW 04:08:44 10° NNE
Cosmos 2251 Rocket 3.5 04:01:11 35° SSW 04:03:26 79° ESE 04:08:46 10° NNE
Cosmos 1455 3.9 04:06:38 23° N 04:06:38 23° N 04:08:11 10° N
Aureole 2 Rocket 3.9 04:05:17 28° NE 04:05:39 29° ENE 04:08:23 10° ESE
BREEZE M DEB (TANK) 2.9 04:06:13 62° SSE 04:06:13 62° SSE 04:11:33 10° E
COSMO-SKYMED 1 3.0 04:02:25 10° SSE 04:06:43 62° ENE 04:11:01 10° N
Meteor 1-31 Rocket 2.9 04:03:49 10° NNE 04:07:39 72° ESE 04:08:25 52° SSE
Spot 2 3.8 04:04:51 10° NNE 04:08:48 75° NW 04:08:48 75° NW
Cosmos 921 Rocket 4.3 04:05:04 10° N 04:09:21 42° ENE 04:13:31 10° SE
Cosmos 1605 Rocket 3.8 04:05:16 10° NNW 04:11:31 70° W 04:17:38 10° S
PAYLOAD A 3.9 04:07:02 10° N 04:11:47 60° WNW 04:12:26 55° WSW
NOSS 2-1 (C) 3.1 04:12:26 70° SE 04:12:32 70° SE 04:16:22 10° NE
Cosmos 2219 Rocket 3.5 04:14:45 23° NW 04:14:59 23° NW 04:19:29 10° NNE
ATLAS 2AS CENTAUR R/B 4.0 04:10:29 16° NW 04:16:12 38° NNE 04:23:04 10° E
NOSS 2-1 (D) 3.0 04:16:24 74° SSE 04:16:34 77° SE 04:20:26 10° NE
GEOS 3 Rocket 3.9 04:12:44 10° NE 04:18:03 70° SE 04:21:26 23° SSW
CZ-4B R/B 3.9 04:14:21 10° NNE 04:18:38 89° W 04:21:31 21° SSW
Cosmos 2221 3.1 04:18:04 10° S 04:22:14 56° E 04:26:28 10° NNE
Cosmos 1153 Rocket 4.3 04:17:25 10° N 04:23:37 84° W 04:29:45 10° S
ADEOS 3.8 04:18:58 10° N 04:23:57 46° WNW 04:25:00 40° W
STARLINK-1170 3.6 04:27:03 43° ENE 04:27:03 43° ENE 04:29:01 10° ENE
Cosmos-2242 4.1 04:28:38 28° NW 04:28:38 28° NW 04:31:18 10° N
Cosmos 2360 Rocket 4.2 04:26:01 12° NW 04:27:23 13° NNW 04:30:06 10° N
COSMOS 2428 4.1 04:28:27 21° NW 04:29:15 22° NW 04:33:37 10° NNE
Meteor 2-10 Rocket 3.6 04:27:19 29° SW 04:29:51 54° WNW 04:34:56 10° N
SKYMED 3 4.4 04:26:27 10° SSE 04:30:48 80° WSW 04:35:10 10° NNW
Cosmos 1943 Rocket 2.1 04:31:14 14° NW 04:35:51 60° WSW 04:41:15 10° SSE
Lacrosse 5 2.1 04:38:34 34° W 04:40:24 50° SW 04:45:17 10° SSE
Cosmos 1727 Rocket 3.9 04:34:24 10° S 04:40:37 85° W 04:46:51 10° N
STARLINK-1162 2.8 04:40:54 59° NW 04:41:17 69° N 04:44:26 10° E
STARLINK-1157 2.9 04:42:33 57° WNW 04:43:01 69° N 04:46:09 10° E
ADEOS Rocket 3.6 04:38:08 10° SSE 04:44:19 65° ENE 04:51:15 10° NNW
SL-16 R/B 2.3 04:41:35 24° WSW 04:44:57 56° NW 04:50:34 10° NNE
STARLINK-1159 2.9 04:44:29 53° WNW 04:45:01 69° N 04:48:10 10° E
CZ-2C R/B 3.0 04:40:22 10° N 04:45:12 40° WNW 04:47:45 24° WSW
STARLINK-1171 2.9 04:46:21 50° WNW 04:46:58 68° N 04:50:06 10° E
STARLINK-1179 2.4 04:47:55 61° NNW 04:48:00 62° N 04:50:33 10° E
Cosmos 2173 Rocket 4.0 04:41:41 10° N 04:48:03 89° ENE 04:54:18 10° S
STARLINK-1176 2.4 04:48:29 61° NNW 04:48:35 62° N 04:51:08 10° E
STARLINK-1155 2.9 04:48:08 48° WNW 04:48:50 68° N 04:51:58 10° E
STARLINK-1153 2.8 04:49:50 50° WNW 04:50:23 66° N 04:53:19 10° E
STARLINK-1180 2.8 04:50:03 50° WNW 04:50:37 66° N 04:53:33 10° E
STARLINK-1166 2.9 04:50:07 45° WNW 04:50:55 68° N 04:54:02 10° E
STARLINK-1174 2.8 04:50:31 49° WNW 04:51:05 66° N 04:54:01 10° E
STARLINK-1139 2.8 04:50:44 49° WNW 04:51:19 66° N 04:54:14 10° E
STARLINK-1133 2.8 04:50:55 49° WNW 04:51:31 66° N 04:54:26 10° E
STARLINK-1151 2.8 04:51:10 48° WNW 04:51:46 66° N 04:54:42 10° E
STARLINK-1160 2.8 04:51:48 47° WNW 04:52:26 66° N 04:55:21 10° E
STARLINK-1161 2.8 04:52:01 47° WNW 04:52:39 66° N 04:55:35 10° E
STARLINK-1165 2.9 04:51:54 42° WNW 04:52:46 68° N 04:55:54 10° E
STARLINK-1145 2.8 04:52:14 47° WNW 04:52:53 66° N 04:55:48 10° E
Cosmos 1805 Rocket 3.6 04:48:32 10° N 04:52:54 79° E 04:57:14 10° SSE
STARLINK-1172 2.8 04:52:25 46° WNW 04:53:05 66° N 04:56:00 10° E
STARLINK-1182 2.8 04:52:54 46° WNW 04:53:34 65° N 04:56:30 10° E
STARLINK-1164 2.8 04:53:06 45° WNW 04:53:47 65° N 04:56:43 10° E
STARLINK-1168 2.8 04:53:18 45° WNW 04:54:00 65° N 04:56:55 10° E
Cosmos 407 Rocket 4.0 04:48:55 10° S 04:54:10 62° ESE 04:59:25 10° NNE
TELKOM 3 3.2 04:54:11 47° S 04:54:11 47° S 04:56:14 10° E
STARLINK-1169 2.9 04:53:45 40° WNW 04:54:40 67° N 04:57:49 10° E
STARLINK-1183 2.8 04:53:58 44° WNW 04:54:41 65° N 04:57:36 10° E
SKYMED 2 3.8 04:50:41 10° S 04:54:53 47° W 04:59:06 10° NNW
STARLINK-1181 2.8 04:54:10 44° WNW 04:54:54 65° N 04:57:49 10° E
STARLINK-1196 2.8 04:54:49 43° WNW 04:55:35 65° N 04:58:31 10° E
FENGYUN 3A 3.7 04:50:10 10° NNE 04:55:39 89° E 05:01:06 10° SSW
STARLINK-1186 2.8 04:55:16 42° WNW 04:56:02 65° N 04:58:58 10° E
STARLINK-1185 2.8 04:55:29 42° WNW 04:56:15 65° N 04:59:10 10° E
Cosmos 2369 Rocket 2.3 04:50:46 10° NW 04:56:20 54° WSW 05:01:53 10° S
STARLINK-1175 2.8 04:55:42 42° WNW 04:56:29 65° N 04:59:25 10° E
STARLINK-1178 3.0 04:55:35 38° WNW 04:56:36 67° N 04:59:45 10° E
STARLINK-1147 2.8 04:55:54 41° WNW 04:56:42 65° N 04:59:37 10° E
Cosmos 1862 4.0 04:52:55 10° N 04:56:51 55° ENE 05:00:44 10° SSE
STARLINK-1146 2.8 04:56:07 41° WNW 04:56:55 65° N 04:59:51 10° E
STARLINK-1152 2.8 04:56:20 41° WNW 04:57:09 65° N 05:00:04 10° E
STARLINK-1195 2.8 04:56:33 41° WNW 04:57:22 65° N 05:00:18 10° E
STARLINK-1137 2.8 04:56:47 40° WNW 04:57:38 65° N 05:00:33 10° E
STARLINK-1142 2.8 04:57:00 40° WNW 04:57:51 65° N 05:00:46 10° E
STARLINK-1127 2.8 04:57:12 40° WNW 04:58:03 65° N 05:00:58 10° E
STARLINK-1184 2.8 04:57:26 40° WNW 04:58:17 65° N 05:01:12 10° E
STARLINK-1120 3.0 04:57:20 36° WNW 04:58:25 67° N 05:01:35 10° E
STARLINK-1193 2.8 04:57:39 39° WNW 04:58:31 65° N 05:01:27 10° E
STARLINK-1194 2.8 04:57:51 39° WNW 04:58:44 65° N 05:01:39 10° E
Sich 1 3.3 04:55:54 10° N 05:00:11 69° ENE 05:04:28 10° SSE
Cosmos 2100 Rocket 3.9 04:54:02 10° NNW 05:00:16 72° W 05:06:24 10° S
STARLINK-1131 3.0 04:59:19 34° WNW 05:00:29 67° N 05:03:38 10° E
Cosmos 1500 Rocket 3.8 04:56:23 10° NNW 05:00:38 44° W 05:04:49 10° SSW
Cosmos 1603 4.0 04:55:18 10° SSW 05:00:59 71° ESE 05:06:40 10° NNE
Okean O Rocket 2.5 04:56:48 10° NNE 05:01:07 53° E 05:05:23 10° S
Cosmos 1140 Rocket 4.4 04:56:04 10° S 05:01:08 52° ESE 05:06:15 10° NNE
CZ-4B DEB 4.3 04:55:39 10° NNE 05:01:11 79° ESE 05:06:39 10° SSW
Cosmos 1238 4.0 04:58:51 10° S 05:01:52 90° SSE 05:05:00 10° N
USA 215 3.6 04:55:52 10° ENE 05:02:15 57° N 05:07:21 17° WNW
STARLINK-1190 3.0 05:01:09 32° WNW 05:02:24 67° N 05:05:33 10° E
NOSS 2-1 (E) 3.4 05:01:57 26° WSW 05:03:39 51° NW 05:07:40 10° NE
Meteor 2-3 Rocket 4.2 04:59:12 10° NNW 05:04:29 39° W 05:09:46 10° SSW
Cosmos 2263 4.2 05:00:25 10° NW 05:06:03 61° WSW 05:11:36 10° SSE
Cosmos 2061 Rocket 4.0 05:01:45 10° N 05:08:07 89° E 05:14:22 10° S
Cosmos 1943 3.7 05:02:39 10° SSW 05:08:11 64° ESE 05:13:46 10° NE
Meteor PRIRODA 4.1 05:05:43 10° N 05:09:13 40° WNW 05:12:41 10° SW
Cosmos 1743 Rocket 4.2 05:08:09 10° NNW 05:12:00 32° W 05:15:50 10° SSW
CZ-4B R/B 3.6 05:07:33 10° NNE 05:12:54 65° ESE 05:18:09 10° S
Cosmos 1484 Rocket 3.4 05:10:51 10° N 05:14:27 35° WNW 05:18:04 10° SW
Cosmos 1000 Rocket 4.4 05:09:14 10° S 05:15:24 84° W 05:21:41 10° N
CZ-4B R/B 3.6 05:12:39 10° N 05:15:54 28° WNW 05:18:23 14° WSW
Cosmos 1190 Rocket 4.2 05:10:50 10° SSW 05:16:05 79° ESE 05:21:26 10° NNE
Cosmos 2333 Rocket 4.1 05:13:49 11° NW 05:16:37 14° NNW 05:19:41 10° NNE
ALOS 2.3 05:13:43 10° N 05:18:18 55° WNW 05:22:50 10° SSW
STARLINK-1149 2.6 05:17:26 24° WNW 05:18:48 64° N 05:21:26 10° E
CZ-4C R/B 3.3 05:14:51 16° WNW 05:18:50 34° NNW 05:24:56 10° NE
Cosmos 1459 Rocket 4.0 05:13:33 10° NNW 05:19:33 58° W 05:25:38 10° S
DMSP B5D1-3 4.5 05:14:49 10° S 05:19:52 64° WSW 05:24:57 10° NNW
STARLINK-1129 3.0 05:17:57 21° WNW 05:19:56 68° N 05:23:08 10° E
H-2A R/B 3.5 05:17:04 10° N 05:20:44 28° WNW 05:24:29 10° WSW
STARLINK-1134 3.0 05:19:36 20° WNW 05:21:40 68° N 05:24:51 10° E
STARLINK-1132 2.6 05:20:13 22° WNW 05:21:46 65° N 05:24:27 10° E
ATLAS CENTAUR R/B 2.3 05:19:22 16° W 05:22:29 35° NW 05:26:31 10° NNE
Cosmos 1656 Rocket 3.7 05:17:15 10° NW 05:22:54 69° WSW 05:28:33 10° SSE
STARLINK-1135 3.0 05:21:47 19° WNW 05:23:56 68° N 05:27:07 10° E
Meteor 2-2 Rocket 4.4 05:18:32 10° SSW 05:24:32 69° WNW 05:30:35 10° N
STARLINK-1150 2.6 05:23:03 20° WNW 05:24:43 66° N 05:27:24 10° E
Cosmos 1725 Rocket 4.0 05:19:23 10° N 05:25:40 87° W 05:31:58 10° S
STARLINK-1163 2.6 05:24:05 20° WNW 05:25:47 66° N 05:28:29 10° E
Cosmos 1346 Rocket 4.3 05:22:12 10° N 05:25:55 39° ENE 05:29:35 10° SE
STARLINK-1141 3.0 05:23:49 18° WNW 05:26:03 69° N 05:29:14 10° E
PSLV R/B 4.2 05:23:14 10° N 05:26:41 37° WNW 05:30:10 10° SW
STARLINK-1173 2.6 05:25:53 19° WNW 05:27:40 67° N 05:30:23 10° E
STARLINK-1140 3.0 05:25:39 17° WNW 05:27:59 69° N 05:31:10 10° E
STARLINK-1177 2.6 05:26:26 18° WNW 05:28:16 67° N 05:30:58 10° E
Cosmos 1842 Rocket 4.4 05:24:29 10° SW 05:28:25 29° WNW 05:32:22 10° N
Cosmos 614 Rocket 3.9 05:23:36 10° SW 05:28:44 68° WNW 05:33:57 10° NNE
STARLINK-1167 2.6 05:27:50 18° WNW 05:29:43 67° N 05:32:26 10° E
STARLINK-1156 3.0 05:27:35 16° WNW 05:29:59 69° N 05:33:11 10° E
IDEFIX/ARIANE 42P 4.5 05:29:02 10° NW 05:30:03 11° NW 05:31:05 10° WNW
Cosmos 2123 Rocket 4.2 05:25:40 10° S 05:31:59 83° E 05:38:20 10° NNE
STARLINK-1148 3.0 05:29:31 16° WNW 05:32:00 70° N 05:35:12 10° E
Cosmos 1802 Rocket 4.1 05:26:34 10° NNW 05:32:51 57° W 05:39:06 10° SSW
Cosmos 676 Rocket 4.5 05:27:52 10° SSW 05:33:09 69° ESE 05:38:29 10° NNE
NOSS 3-4 (A) 4.4 05:26:38 10° NW 05:33:11 52° NNE 05:40:25 10° ESE
NOSS 3-4 (C) 4.4 05:26:44 10° NW 05:33:17 52° NNE 05:40:30 10° ESE
Cosmos 1633 3.2 05:29:59 10° NNW 05:33:20 34° W 05:36:38 10° SSW
PAYLOAD B 4.2 05:28:00 10° NNE 05:33:36 71° WNW 05:39:07 10° SSW
STARLINK-1158 3.0 05:31:27 15° WNW 05:34:01 70° N 05:37:13 10° E
STARLINK-1136 2.6 05:32:38 16° WNW 05:34:41 69° N 05:37:23 10° E
Cosmos 1151 Rocket 4.4 05:30:42 10° SSE 05:34:48 45° E 05:38:57 10° NNE
Aureole 2 Rocket 3.6 05:37:36 12° WNW 05:39:23 18° WSW 05:41:37 10° SSW
NOAA 6 4.0 05:35:47 10° NNE 05:40:58 69° WNW 05:46:05 10° SSW
Meteor 1-31 Rocket 4.5 05:39:28 10° NNW 05:41:35 14° WNW 05:43:41 10° W
COSMO-SKYMED 1 4.0 05:40:18 10° SW 05:43:17 18° W 05:46:17 10° NW
SL-08 R/B 4.5 05:38:54 10° NNW 05:45:00 62° W 05:50:59 10° S
Cosmos 1864 Rocket 4.5 05:40:15 10° NNW 05:46:17 63° W 05:52:20 10° S
Cosmos 921 Rocket 4.0 05:43:42 10° NW 05:47:27 27° W 05:51:09 10° SSW
Cosmos 1340 2.8 05:44:31 10° N 05:48:18 82° ENE 05:52:04 10° SSE
Cosmos 2237 Rocket 3.9 05:45:18 10° WNW 05:48:46 16° NNW 05:52:16 10° NNE
Cosmos 1633 Rocket 3.0 05:44:33 10° NNW 05:48:55 67° W 05:53:15 10° S
Cosmos 1666 Rocket 3.7 05:45:14 10° NNW 05:49:37 56° W 05:53:56 10° S
Cosmos 1933 Rocket 4.4 05:45:50 10° N 05:50:09 55° ENE 05:54:24 10° SSE
YAOGAN 6 4.3 05:47:07 10° NNE 05:50:25 38° E 05:53:44 10° SSE
GEOS 3 Rocket 4.3 05:51:01 10° NE 05:55:53 39° NNW 06:00:48 10° W
Cosmos 841 Rocket 4.5 05:52:51 10° NNW 05:57:56 49° ENE 06:03:01 10° SE
SMAP 3.1 05:54:57 10° NNE 05:59:39 89° SE 06:04:19 10° SSW
Cosmos 2221 3.9 05:57:05 10° WSW 06:00:11 19° WNW 06:03:19 10° NNW
Cosmos 1400 Rocket 2.8 05:56:32 10° SSW 06:00:31 64° WNW 06:04:35 10° N
Cosmos 2219 Rocket 4.3 05:59:26 10° NNW 06:01:12 11° N 06:02:59 10° N
